• Currently

    Reported at Hancock, Houghton County Memorial Airport, MI
    5:07 AM EST TUE AUG 22 2017
  • 55°F13°C
  • Mostly Cloudy
    Mostly Cloudy
  • Feels Like:55°F13°CDew Point:54°F12°CHumidity:94% Winds:NNW 9 mph 14 kph
    Pressure:29.74 in1007 hPaVisibility:10.00 miles16090.00 meters
Time Weather Temp Dew Point
Humidity Winds Visibility Pressure Precipitation
1 hr 24 hr
Tuesday, August 22
06:53 06:53 Cloudy Cloudy 57°F14°C 54°F12°C 90% NW 10 mphNW 17 kph 10.0 miles16.1 km 29.74 in1007 hPa 0.00 in0.00 mm --
06:07 06:07 Mostly Cloudy Mostly Cloudy 56°F13°C 53°F12°C 90% NNW 9 mphNNW 15 kph 10.0 miles16.1 km 29.74 in1007 hPa 0.00 in0.00 mm --
05:53 05:53 Cloudy Cloudy 57°F14°C 54°F12°C 90% NNW 9 mphNNW 15 kph 10.0 miles16.1 km 29.74 in1007 hPa 0.00 in0.00 mm --
05:04 05:04 Mostly Cloudy Mostly Cloudy 56°F13°C 53°F12°C 90% NW 7 mphNW 11 kph 10.0 miles16.1 km 29.74 in1007 hPa 0.00 in0.00 mm --
04:53 04:53 Mostly Cloudy Mostly Cloudy 56°F13°C 52°F11°C 87% NNW 7 mphNNW 11 kph 10.0 miles16.1 km 29.74 in1007 hPa 0.00 in0.00 mm --
04:51 04:51 Mostly Cloudy Mostly Cloudy 55°F13°C 52°F11°C 88% NNW 9 mphNNW 15 kph 10.0 miles16.1 km 29.74 in1007 hPa 0.00 in0.00 mm --
04:20 04:20 Cloudy Cloudy 56°F13°C 52°F11°C 87% NW 9 mphNW 15 kph 10.0 miles16.1 km 29.74 in1007 hPa 0.00 in0.00 mm --
03:53 03:53 Cloudy Cloudy 56°F13°C 53°F12°C 90% NNW 13 mphNNW 20 kph 10.0 miles16.1 km 29.74 in1007 hPa 0.01 in6.45 mm --
03:42 03:42 Cloudy With Light Rain Cloudy With Light Rain 56°F13°C 53°F12°C 90% NNW 12 mphNNW 19 kph 10.0 miles16.1 km 29.74 in1007 hPa 0.01 in6.45 mm --
03:25 03:25 Cloudy With Light Rain Cloudy With Light Rain 56°F13°C 53°F12°C 90% NNW 14 mphNNW 22 kph 10.0 miles16.1 km 29.74 in1007 hPa 0.00 in0.03 mm --
02:53 02:53 Cloudy With Light Rain Cloudy With Light Rain 57°F14°C 55°F13°C 93% NNW 16 mphNNW 26 kph 8.0 miles12.9 km 29.71 in1006 hPa 0.03 in19.35 mm --
02:45 02:45 Cloudy With Heavy Rain Cloudy With Heavy Rain 58°F14°C 55°F13°C 90% NNW 16 mphNNW 26 kph 6.0 miles9.7 km 29.74 in1007 hPa 0.03 in19.35 mm --
02:02 02:02 Cloudy With Light Rain Cloudy With Light Rain 58°F14°C 56°F13°C 93% N 6 mphN 9 kph 7.0 miles11.3 km 29.74 in1007 hPa 0.01 in6.45 mm --
01:53 01:53 Cloudy With Nearby Thunderstorms Cloudy With Nearby Thunderstorms 58°F14°C 56°F13°C 93% NNE 7 mphNNE 11 kph 4.0 miles6.4 km 29.74 in1007 hPa 0.48 in309.68 mm --
01:40 01:40 Cloudy With Thunderstorms Cloudy With Thunderstorms 58°F14°C 56°F13°C 93% N 6 mphN 9 kph 7.0 miles11.3 km 29.74 in1007 hPa 0.43 in277.42 mm --
01:23 01:23 Cloudy With Thunderstorms Cloudy With Thunderstorms 58°F14°C 56°F13°C 93% N 12 mphN 19 kph 3.0 miles4.8 km 29.77 in1008 hPa 0.41 in264.52 mm --
01:12 01:12 Cloudy With Heavy Thunderstorms Cloudy With Heavy Thunderstorms 58°F14°C 56°F13°C 93% NNW 9 mphNNW 15 kph 1.2 miles2.0 km 29.77 in1008 hPa 0.32 in206.45 mm --
01:07 01:07 Cloudy With Heavy Thunderstorms Cloudy With Heavy Thunderstorms 58°F14°C 56°F13°C 93% N 7 mphN 11 kph 2.5 miles4.0 km 29.77 in1008 hPa 0.18 in116.13 mm --
00:53 00:53 Cloudy With Nearby Thunderstorms Cloudy With Nearby Thunderstorms 58°F14°C 56°F13°C 93% E 7 mphE 11 kph 10.0 miles16.1 km 29.74 in1007 hPa 0.00 in0.03 mm --
00:46 00:46 Cloudy With Nearby Thunderstorms Cloudy With Nearby Thunderstorms 58°F14°C 56°F13°C 93% NE 7 mphNE 11 kph 10.0 miles16.1 km 29.77 in1008 hPa 0.00 in0.03 mm --